Location: Unspecified
(0.0000°N, 0.0000°E)
Time: 12:35:57
(UTC+00:00)

Vanguard 3 - Pass Details

Date: 10 December 2017
Orbit: 508 x 3264 km, 33.3° (Epoch: 24 April)

Event Time Altitude Azimuth Distance (km) Brightness Sun altitude
Rises 22:50:38 0° 283° (WNW) 5,092 11.3 -62.4°
Enters shadow 22:52:34 - 279° (W) 4,665 11.1 -62.7°
Exits shadow 23:11:09 39° 176° (S) 3,929 10.5 -64.8°
Drops below altitude 10° 23:24:15 10° 142° (SE) 6,199 11.7 -66.0°
Sets 23:29:41 0° 135° (SE) 7,219 12.2 -66.3°
